This is the latest recevied weather packets stored in our database for station/object KG5WBN. If no packets are shown the sender has not sent any weather packets the latest 10 day(s).
| Time | Temp. | Humidity | Pressure | Rain* | Wind** | Luminosity | Snow |
|---|---|---|---|---|---|---|---|
| 1788054672 | 28.89° C | 63% | 1014.9 hPa | 0 mm | - | 0 W/m² | - |
| 1788054367 | 28.89° C | 63% | 1014.6 hPa | 0 mm | - | 0 W/m² | - |
| 1788054063 | 28.89° C | 63% | 1014.6 hPa | 0 mm | - | 0 W/m² | - |
| 1788053758 | 28.89° C | 63% | 1014.6 hPa | 0 mm | - | 0 W/m² | - |
| 1788053453 | 28.89° C | 63% | 1014.2 hPa | 0 mm | - | 0 W/m² | - |
| 1788053153 | 28.89° C | 61% | 1014.6 hPa | 0 mm | - | 0 W/m² | - |
| 1788052850 | 29.44° C | 60% | 1014.2 hPa | 0 mm | - | 0 W/m² | - |
| 1788052550 | 29.44° C | 59% | 1014.2 hPa | 0 mm | - | 0 W/m² | - |
| 1788052244 | 29.44° C | 58% | 1014.6 hPa | 0 mm | - | 0 W/m² | - |
| 1788051940 | 29.44° C | 58% | 1014.2 hPa | 0 mm | - | 0 W/m² | - |
| 1788051635 | 29.44° C | 57% | 1014.2 hPa | 0 mm | - | 0 W/m² | - |
| 1788051333 | 29.44° C | 57% | 1013.9 hPa | 0 mm | - | 0 W/m² | - |
| 1788051032 | 29.44° C | 58% | 1014.2 hPa | 0 mm | - | 0 W/m² | - |
| 1788050727 | 29.44° C | 56% | 1013.9 hPa | 0 mm | - | 0 W/m² | - |
| 1788050426 | 30° C | 57% | 1013.9 hPa | 0 mm | - | 0 W/m² | - |
| 1788050121 | 30° C | 55% | 1013.9 hPa | 0 mm | - | 0 W/m² | - |
| 1788049816 | 30° C | 55% | 1013.5 hPa | 0 mm | - | 1 W/m² | - |
| 1788049509 | 30° C | 54% | 1013.9 hPa | 0 mm | - | 2 W/m² | - |
| 1788049205 | 30.56° C | 53% | 1013.5 hPa | 0 mm | - | 6 W/m² | - |
| 1788048899 | 30.56° C | 53% | 1013.5 hPa | 0 mm | - | 8 W/m² | - |
| 1788048595 | 31.11° C | 51% | 1013.5 hPa | 0 mm | - | 12 W/m² | - |
| 1788048292 | 31.11° C | 42% | 1013.5 hPa | 0 mm | - | 19 W/m² | - |
| 1788047990 | 31.67° C | 42% | 1013.9 hPa | 0 mm | - | 22 W/m² | - |
| 1788047684 | 31.67° C | 42% | 1013.5 hPa | 0 mm | - | 31 W/m² | - |
| 1788047383 | 31.67° C | 42% | 1013.5 hPa | 0 mm | - | 35 W/m² | - |
* Rain latest hour (hover to see other rain measurements)
** Current wind speed in m/s (hover to see current wind gust speed)